F4EEX Weather Reports


Display with metric or nautical units.
time (UTC)temp
F
wind
direction
speed
MPH
gust
MPH
rain 1hr
in
rain 24hr
in
rain mn
in
humidity
%
barometer
mb
20260505163244 68 300 0.0 0.0 0.00 0.34 0.21 51 1009.3
20260505162744 68 300 0.0 0.0 0.00 0.34 0.21 51 1009.2
20260505162244 68 300 0.0 0.0 0.00 0.34 0.21 51 1009.3
20260505161744 67 300 0.0 0.0 0.00 0.34 0.21 52 1009.2
20260505161244 68 300 0.0 0.0 0.00 0.34 0.21 52 1009.3
20260505160744 68 300 0.0 0.0 0.00 0.34 0.21 53 1009.4
20260505160244 68 300 0.0 0.0 0.00 0.34 0.21 54 1009.4
20260505153244 66 300 0.0 0.0 0.00 0.35 0.21 56 1009.6
20260505152744 66 300 0.0 0.0 0.00 0.35 0.21 58 1009.6
20260505152244 66 300 0.0 0.0 0.00 0.35 0.21 58 1009.5
20260505151744 66 300 0.0 0.0 0.00 0.35 0.21 59 1009.6
20260505151244 66 300 0.0 0.0 0.00 0.35 0.21 58 1009.5
20260505150744 67 300 0.0 0.0 0.00 0.35 0.21 60 1009.4
20260505150244 66 300 0.0 0.0 0.00 0.35 0.21 60 1009.4
20260505140245 67 28 0.0 0.0 0.00 0.35 0.21 54 1009.6
20260505130245 68 326 0.0 0.0 0.00 0.47 0.21 54 1010.0
20260505124745 68 326 0.0 0.0 0.00 0.50 0.21 50 1010.0
20260505124245 69 326 0.0 0.0 0.00 0.50 0.21 51 1009.9
20260505123745 69 326 0.0 0.0 0.00 0.50 0.21 54 1009.9
20260505123245 68 326 0.0 0.0 0.00 0.50 0.21 54 1009.9
20260505122745 68 326 0.0 0.0 0.00 0.50 0.21 57 1009.9
20260505122245 67 326 0.0 0.0 0.00 0.50 0.21 56 1009.9
20260505121745 68 326 0.0 0.0 0.00 0.50 0.21 57 1010.0
20260505121353 67 326 0.0 0.0 0.00 0.50 0.21 59 1010.1
20260505121245 67 326 0.0 0.0 0.00 0.50 0.21 59 1010.1
20260505120745 67 326 0.0 0.0 0.00 0.50 0.21 59 1010.2
20260505120245 67 326 0.0 0.0 0.00 0.50 0.21 60 1010.2
20260505115745 67 326 0.0 0.0 0.00 0.50 0.21 62 1010.3
20260505115245 66 326 0.0 0.0 0.00 0.50 0.21 61 1010.3
20260505114745 66 326 0.0 0.0 0.00 0.50 0.21 63 1010.3
20260505114245 66 326 0.0 0.0 0.00 0.50 0.21 63 1010.3
20260505113745 66 326 0.0 0.0 0.00 0.50 0.21 63 1010.3
20260505113245 65 326 0.0 0.0 0.00 0.50 0.21 63 1010.4
20260505112745 66 326 0.0 0.0 0.00 0.50 0.21 64 1010.4
20260505112245 66 326 0.0 0.0 0.00 0.50 0.21 63 1010.5
20260505111745 67 326 0.0 0.0 0.00 0.50 0.21 63 1010.5
20260505111245 66 326 0.0 0.0 0.00 0.50 0.21 66 1010.6
20260505110745 66 326 0.0 0.0 0.00 0.50 0.21 67 1010.6
20260505110245 66 326 0.0 0.0 0.00 0.50 0.21 66 1010.6
20260505101745 66 326 0.0 0.0 0.00 0.53 0.21 64 1010.7
20260505101245 67 326 0.0 0.0 0.00 0.53 0.21 66 1010.6
20260505100745 66 326 0.0 0.0 0.00 0.53 0.21 66 1010.7
20260505100245 66 326 0.0 0.0 0.00 0.53 0.21 68 1010.7
20260505095745 66 326 0.0 0.0 0.00 0.53 0.21 68 1010.7
20260505095245 65 326 0.0 0.0 0.00 0.53 0.21 71 1010.7
20260505094745 64 326 0.0 0.0 0.00 0.53 0.21 71 1010.7
20260505094245 64 326 0.0 2.0 0.00 0.53 0.21 73 1010.7
20260505093745 63 326 0.0 9.0 0.00 0.53 0.21 74 1010.7
20260505093245 63 300 0.0 0.0 0.00 0.53 0.21 77 1010.7
20260505092745 62 300 0.0 0.0 0.00 0.53 0.21 78 1010.6
20260505092245 61 300 0.0 7.0 0.00 0.53 0.21 79 1010.6
20260505091745 61 317 0.0 8.0 0.00 0.53 0.21 79 1010.7
20260505091245 61 338 5.0 9.0 0.00 0.53 0.21 80 1010.7
20260505090745 61 300 0.0 9.0 0.00 0.53 0.21 80 1010.7
20260505090245 61 334 0.0 10.0 0.00 0.53 0.21 80 1010.7
20260505085745 61 312 9.0 10.0 0.00 0.53 0.21 80 1010.6
20260505085245 61 351 1.0 11.0 0.00 0.53 0.21 81 1010.6
20260505084745 60 316 9.0 11.0 0.00 0.53 0.21 81 1010.6
20260505084245 60 310 6.0 10.0 0.00 0.53 0.21 82 1010.6
20260505083745 60 300 0.0 10.0 0.00 0.53 0.21 82 1010.5
20260505083245 60 316 6.0 10.0 0.00 0.53 0.21 83 1010.5
20260505082745 60 300 0.0 12.0 0.00 0.53 0.21 84 1010.5
20260505082245 60 300 0.0 11.0 0.00 0.53 0.21 85 1010.5
20260505081745 60 324 6.0 9.0 0.00 0.53 0.21 85 1010.4
20260505081245 60 331 3.0 8.0 0.00 0.53 0.21 85 1010.5
20260505080745 60 300 0.0 8.0 0.00 0.53 0.21 85 1010.4
20260505080245 60 300 5.0 9.0 0.00 0.53 0.21 85 1010.4
20260505075745 60 300 5.0 8.0 0.00 0.53 0.21 86 1010.4
20260505075245 60 300 5.0 8.0 0.00 0.54 0.21 86 1010.4
20260505074745 60 300 0.0 3.0 0.00 0.54 0.21 87 1010.4
20260505074245 60 300 0.0 5.0 0.00 0.54 0.21 87 1010.3
20260505073745 60 329 0.0 9.0 0.00 0.54 0.21 87 1010.3
20260505073245 60 343 0.0 9.0 0.00 0.54 0.21 87 1010.4
20260505072745 60 300 0.0 6.0 0.00 0.54 0.21 88 1010.4
20260505072245 59 331 0.0 5.0 0.00 0.54 0.21 88 1010.2
20260505071745 59 300 5.0 5.0 0.00 0.54 0.21 88 1010.2
20260505071245 59 343 0.0 7.0 0.00 0.54 0.21 88 1010.3
20260505070745 59 300 0.0 8.0 0.00 0.54 0.21 88 1010.2
20260505070245 59 350 0.0 9.0 0.00 0.54 0.21 88 1010.1
20260505065745 59 341 0.0 8.0 0.00 0.54 0.21 88 1010.0
20260505065245 60 348 0.0 8.0 0.00 0.55 0.21 88 1010.0
20260505064745 60 336 7.0 11.0 0.00 0.55 0.21 88 1009.9
20260505064245 60 300 0.0 10.0 0.00 0.55 0.21 87 1009.9
20260505063745 60 300 0.0 11.0 0.00 0.55 0.21 87 1009.8
20260505063245 60 300 6.0 9.0 0.00 0.55 0.21 86 1009.7
20260505062745 61 300 0.0 5.0 0.00 0.55 0.21 87 1009.7
20260505062245 61 300 0.0 8.0 0.00 0.55 0.21 87 1009.7
20260505061745 61 300 4.0 9.0 0.00 0.55 0.21 88 1009.5
20260505061245 60 217 6.0 8.0 0.00 0.55 0.21 88 1009.3
20260505060745 60 188 6.0 8.0 0.00 0.55 0.21 89 1009.3
20260505060245 59 182 0.0 9.0 0.00 0.55 0.21 89 1009.3
20260505055745 59 300 6.0 9.0 0.00 0.55 0.21 89 1009.3
20260505055245 59 300 0.0 8.0 0.00 0.57 0.21 89 1009.1
20260505054745 59 177 0.0 6.0 0.00 0.57 0.21 89 1009.2
20260505054245 59 174 4.0 9.0 0.00 0.57 0.21 89 1009.1
20260505053745 59 300 5.0 9.0 0.00 0.57 0.21 89 1009.1
20260505053245 59 189 4.0 9.0 0.00 0.57 0.21 89 1009.1
20260505052745 59 225 6.0 8.0 0.00 0.57 0.21 89 1009.1
20260505052245 59 163 6.0 7.0 0.00 0.57 0.21 90 1009.0
20260505051745 59 300 2.0 9.0 0.00 0.57 0.21 90 1008.9
20260505051245 58 188 0.0 9.0 0.00 0.57 0.21 90 1008.9
20260505050745 58 136 2.0 9.0 0.00 0.57 0.21 90 1008.9
20260505050245 58 146 0.0 5.0 0.00 0.57 0.21 90 1008.9
20260505041745 58 119 0.0 6.0 0.00 0.57 0.21 90 1008.9
20260505041245 58 170 0.0 7.0 0.00 0.57 0.21 91 1008.9
20260505040745 58 300 0.0 0.0 0.00 0.57 0.21 91 1008.9
20260505040245 58 300 0.0 0.0 0.00 0.57 0.21 91 1009.0
20260505035745 57 300 0.0 3.0 0.00 0.57 0.21 91 1009.0
20260505035245 57 168 0.0 8.0 0.00 0.57 0.21 91 1008.9
20260505034745 57 201 0.0 0.0 0.00 0.57 0.21 91 1008.9
20260505034245 57 201 0.0 0.0 0.00 0.57 0.21 91 1008.8
20260505033745 57 201 0.0 0.0 0.00 0.57 0.21 91 1008.7
20260505033245 57 201 0.0 0.0 0.00 0.57 0.21 91 1008.7
20260505032746 57 201 0.0 0.0 0.00 0.57 0.21 90 1008.5
20260505032245 57 201 0.0 0.0 0.00 0.57 0.21 90 1008.6
20260505031746 57 201 0.0 0.0 0.00 0.57 0.21 90 1008.5
20260505031245 58 201 0.0 0.0 0.00 0.57 0.21 90 1008.5
20260505030745 57 201 0.0 3.0 0.00 0.57 0.21 90 1008.6
20260505030246 58 75 0.0 0.0 0.00 0.57 0.21 90 1008.6
20260505025746 57 75 0.0 0.0 0.00 0.57 0.21 90 1008.6
20260505025246 58 75 0.0 8.0 0.00 0.63 0.21 90 1008.6
20260505024746 58 98 0.0 9.0 0.00 0.63 0.21 90 1008.6
20260505024246 58 137 6.0 8.0 0.00 0.63 0.21 90 1008.7
20260505023746 58 113 7.0 10.0 0.00 0.63 0.21 90 1008.8
20260505023246 58 132 5.0 9.0 0.00 0.63 0.21 90 1008.8
20260505022746 57 144 6.0 8.0 0.01 0.63 0.21 90 1009.0
20260505022246 58 300 7.0 11.0 0.01 0.63 0.21 90 1009.0
20260505021746 58 160 5.0 9.0 0.01 0.63 0.21 90 1009.1
20260505021246 58 180 4.0 7.0 0.01 0.63 0.21 90 1009.0
20260505020746 58 205 5.0 10.0 0.01 0.63 0.21 90 1009.1
20260505020246 58 127 4.0 9.0 0.02 0.63 0.21 90 1009.1
20260505015746 58 215 4.0 11.0 0.02 0.63 0.21 90 1009.0
20260505015246 58 300 1.0 10.0 0.02 0.63 0.21 90 1008.9
20260505014746 58 187 0.0 11.0 0.02 0.63 0.21 90 1008.9
20260505014246 58 300 3.0 8.0 0.02 0.63 0.21 90 1009.0
20260505013746 58 300 5.0 12.0 0.02 0.63 0.21 90 1009.0
20260505013246 58 160 9.0 10.0 0.02 0.63 0.21 90 1008.8
20260505012746 58 151 1.0 9.0 0.01 0.62 0.20 89 1008.8
20260505012246 58 104 0.0 9.0 0.01 0.62 0.20 89 1009.0
20260505011746 58 212 0.0 0.0 0.01 0.62 0.20 89 1009.0
20260505011246 58 212 0.0 9.0 0.01 0.62 0.20 89 1008.7
20260505010746 58 156 5.0 10.0 0.01 0.62 0.20 89 1008.8
20260505010246 58 161 0.0 9.0 0.00 0.61 0.19 89 1009.0
20260505005746 58 170 5.0 9.0 0.00 0.61 0.19 89 1009.1
20260505005246 58 300 0.0 14.0 0.00 0.61 0.19 89 1009.2
20260505004746 58 300 7.0 10.0 0.00 0.61 0.19 89 1009.2
20260505004246 58 300 4.0 11.0 0.00 0.61 0.19 90 1009.1
20260505003746 58 300 3.0 11.0 0.00 0.61 0.19 90 1009.1
20260505003246 57 125 7.0 9.0 0.00 0.61 0.19 90 1009.2
20260505002746 58 300 1.0 10.0 0.01 0.61 0.19 90 1009.1
20260505002246 57 125 4.0 8.0 0.01 0.61 0.19 90 1009.0
20260505001746 57 300 4.0 9.0 0.01 0.61 0.19 90 1009.1
20260505001246 58 163 3.0 8.0 0.01 0.61 0.19 90 1009.1
20260505000746 58 300 0.0 9.0 0.02 0.61 0.19 90 1009.2
20260505000246 58 177 4.0 10.0 0.02 0.61 0.19 90 1009.2
20260504235746 58 300 2.0 9.0 0.02 0.61 0.19 90 1009.2
20260504235246 57 167 7.0 9.0 0.02 0.61 0.19 90 1009.2
20260504234746 57 300 7.0 11.0 0.03 0.61 0.19 90 1009.1
20260504234246 57 156 1.0 10.0 0.04 0.61 0.19 90 1009.2
20260504233746 57 222 0.0 9.0 0.05 0.61 0.19 90 1009.3
20260504233246 57 300 0.0 12.0 0.06 0.61 0.19 90 1009.2
20260504232746 58 142 5.0 9.0 0.06 0.60 0.18 90 1009.3
20260504232246 58 300 6.0 9.0 0.07 0.60 0.18 90 1009.3
20260504231746 58 142 2.0 9.0 0.13 0.60 0.18 90 1009.3
20260504231246 58 168 2.0 11.0 0.15 0.60 0.18 90 1009.3
20260504230746 58 139 11.0 13.0 0.15 0.59 0.17 91 1009.1
20260504230246 57 171 6.0 8.0 0.16 0.59 0.17 91 1009.2
20260504225746 58 105 3.0 9.0 0.17 0.59 0.17 90 1009.3
20260504225246 58 154 0.0 8.0 0.20 0.59 0.17 90 1009.4
20260504224746 58 136 6.0 10.0 0.20 0.58 0.16 90 1009.3
20260504224246 57 156 6.0 8.0 0.20 0.57 0.15 90 1009.5
20260504223746 58 160 0.0 11.0 0.20 0.56 0.14 90 1009.6
20260504223246 57 300 2.0 9.0 0.20 0.55 0.13 90 1009.6
20260504222746 58 139 3.0 9.0 0.19 0.54 0.12 89 1009.5
20260504222246 57 203 6.0 12.0 0.18 0.53 0.11 89 1009.6
20260504221746 57 164 0.0 14.0 0.12 0.47 0.05 89 1009.8
20260504221246 58 129 2.0 10.0 0.10 0.45 0.03 87 1009.6
20260504220746 58 132 4.0 12.0 0.09 0.44 0.02 87 1009.6
20260504220246 58 300 1.0 9.0 0.08 0.43 0.01 86 1009.7
20260504215746 58 135 6.0 16.0 0.07 0.42 0.42 86 1009.7
20260504215246 59 136 0.0 9.0 0.04 0.39 0.39 83 1010.0
20260504214746 58 154 0.0 8.0 0.03 0.38 0.38 82 1010.0
20260504214246 58 160 0.0 8.0 0.02 0.37 0.37 81 1010.0
20260504213746 59 300 3.0 7.0 0.01 0.36 0.36 80 1010.1
20260504213246 59 300 2.0 9.0 0.00 0.35 0.35 78 1010.2
20260504212746 59 300 1.0 7.0 0.00 0.35 0.35 77 1010.3
20260504212246 59 122 0.0 9.0 0.00 0.35 0.35 77 1010.3
20260504211746 59 300 0.0 9.0 0.00 0.35 0.35 76 1010.4
20260504211246 59 184 0.0 8.0 0.00 0.35 0.35 75 1010.4
20260504210746 59 158 1.0 9.0 0.00 0.35 0.35 75 1010.4
20260504210246 59 300 6.0 8.0 0.00 0.35 0.35 75 1010.4
20260504205746 60 164 0.0 8.0 0.00 0.35 0.35 74 1010.4
20260504205246 59 215 3.0 9.0 0.00 0.35 0.35 74 1010.4
20260504204746 60 123 0.0 7.0 0.00 0.35 0.35 74 1010.4
20260504204246 59 194 1.0 9.0 0.00 0.35 0.35 73 1010.5
20260504203746 59 123 8.0 13.0 0.00 0.35 0.35 73 1010.5
20260504203246 59 217 6.0 13.0 0.00 0.35 0.35 75 1010.5
20260504202746 59 142 3.0 11.0 0.00 0.35 0.35 75 1010.5
20260504202246 59 192 9.0 9.0 0.00 0.35 0.35 76 1010.7
20260504201746 59 217 1.0 9.0 0.00 0.35 0.35 77 1010.8
20260504201246 59 300 7.0 14.0 0.00 0.35 0.35 76 1010.5
20260504200746 58 171 8.0 12.0 0.00 0.35 0.35 77 1010.5
20260504200246 59 300 0.0 14.0 0.00 0.35 0.35 77 1010.6
20260504195746 59 196 7.0 13.0 0.00 0.35 0.35 77 1010.7
20260504195246 58 151 0.0 17.0 0.00 0.35 0.35 77 1010.7
20260504194746 58 137 10.0 17.0 0.00 0.35 0.35 78 1010.7
20260504194246 58 125 9.0 16.0 0.00 0.35 0.35 78 1010.7
20260504193746 58 192 10.0 15.0 0.00 0.35 0.35 79 1010.8
20260504193246 57 300 9.0 16.0 0.01 0.35 0.35 80 1010.8
20260504192746 57 300 9.0 13.0 0.03 0.35 0.35 82 1010.8
20260504192246 57 118 6.0 10.0 0.04 0.35 0.35 81 1010.7
20260504191746 57 147 5.0 13.0 0.04 0.35 0.35 82 1010.6
20260504191246 57 177 8.0 11.0 0.04 0.35 0.35 82 1010.6
20260504190746 57 195 4.0 9.0 0.04 0.35 0.35 83 1010.6
20260504190246 57 82 4.0 11.0 0.05 0.35 0.35 83 1010.6
20260504185746 57 171 3.0 12.0 0.06 0.35 0.35 85 1010.5
20260504185246 57 122 4.0 9.0 0.06 0.35 0.35 86 1010.6
20260504184746 57 139 5.0 8.0 0.06 0.35 0.35 86 1010.5
20260504184246 57 108 5.0 8.0 0.06 0.35 0.35 85 1010.6
20260504183746 57 126 1.0 9.0 0.06 0.35 0.35 85 1010.6
20260504183247 57 300 6.0 9.0 0.05 0.34 0.34 84 1010.7
20260504182746 57 54 0.0 3.0 0.03 0.32 0.32 84 1010.7
20260504182246 58 84 0.0 0.0 0.02 0.31 0.31 84 1010.7
20260504181746 58 84 0.0 4.0 0.02 0.31 0.31 83 1010.6
20260504181246 58 115 2.0 14.0 0.02 0.31 0.31 83 1010.7
20260504180746 59 91 5.0 7.0 0.02 0.31 0.31 82 1010.8
20260504180246 59 109 0.0 9.0 0.01 0.30 0.30 81 1011.0
20260504175746 59 300 0.0 9.0 0.00 0.29 0.29 80 1011.1
20260504175246 60 300 4.0 4.0 0.00 0.29 0.29 80 1011.1
20260504174746 59 25 0.0 0.0 0.00 0.29 0.29 80 1011.0
20260504174246 59 25 0.0 6.0 0.01 0.29 0.29 80 1011.0
20260504173746 59 185 4.0 9.0 0.01 0.29 0.29 80 1011.0
20260504173246 59 177 4.0 9.0 0.01 0.29 0.29 80 1011.1
20260504172746 59 140 5.0 11.0 0.01 0.29 0.29 80 1011.2
20260504172246 59 146 5.0 12.0 0.01 0.29 0.29 81 1011.2
20260504171746 59 300 3.0 15.0 0.01 0.29 0.29 81 1011.0
20260504171246 59 188 5.0 13.0 0.01 0.29 0.29 82 1011.1
20260504170746 58 123 0.0 12.0 0.01 0.29 0.29 82 1011.1
20260504170246 58 300 1.0 11.0 0.01 0.29 0.29 82 1011.2